Wind_Speed
2 3 4 4 4 4 4 4 4 4 5 6 6 6 6 5 6 6 6 5 6 6 7 7 7 6 6 7 7 8 8 8 9 9 9 9 9 8 8 9 8 8 9
3 3 4 4 5 5 5 4 5 5 5 6 6 6 6 6 7 7 7 7 7 7 7 7 7 7 7 7 7 8 8 9 9 9 9 10 10 9 9 9 10 9 9
4 4 5 5 6 5 5 6 6 6 6 7 7 7 7 7 7 8 8 8 8 8 8 8 8 8 8 8 8 8 8 9 9 10 10 10 10 10 10 10 10 10 10
5 5 6 6 6 6 6 6 7 7 7 7 8 8 8 9 9 8 9 9 9 9 9 9 9 9 9 9 9 9 9 10 11 11 11 11 11 11 12 10 11 10 11
7 7 7 8 8 7 7 7 8 8 8 9 9 9 9 10 10 10 10 10 10 11 11 11 11 10 10 10 11 11 11 11 12 12 12 12 12 13 13 11 11 11 11
8 8 9 9 9 9 9 9 9 9 10 10 10 10 10 10 11 11 11 11 12 12 12 12 12 12 12 12 12 12 13 13 13 13 14 14 14 14 14 14 13 12 12
9 9 10 11 10 10 10 10 11 11 11 11 11 12 11 12 12 13 12 12 13 13 13 13 14 14 14 14 14 14 14 14 14 15 15 15 15 15 16 15 14 14 14
10 11 10 11 11 12 12 12 12 12 12 12 12 13 13 13 14 14 14 13 13 13 14 15 16 15 15 15 15 16 15 15 15 15 15 16 16 16 16 16 16 16 16
12 12 12 12 13 13 12 13 14 14 14 13 13 13 13 14 15 16 16 15 15 15 15 15 16 16 16 16 17 16 17 17 17 17 17 16 17 17 17 18 18 18 17
12 12 13 14 14 14 14 14 15 16 16 16 15 14 15 16 16 17 17 17 17 16 16 17 17 17 17 17 17 17 17 18 18 18 18 18 18 18 18 19 19 19 19
14 14 15 15 15 16 16 17 17 17 18 17 17 17 17 17 18 18 18 18 17 17 18 18 18 19 19 18 18 18 19 20 20 19 19 19 19 20 20 20 20 20 20
15 16 16 17 18 18 18 18 18 18 18 18 18 18 19 19 19 19 19 18 18 18 19 19 19 19 20 20 20 20 20 20 20 20 20 20 20 21 21 21 21 21 21
16 17 18 18 19 18 18 18 17 17 18 19 20 20 20 20 21 20 20 19 20 20 20 20 20 20 20 21 21 21 21 21 21 21 21 21 21 21 21 21 21 21 22
17 18 18 19 19 19 19 19 19 20 20 20 21 21 22 22 21 22 21 21 21 21 21 21 22 22 21 20 20 21 22 22 22 22 22 22 22 22 22 22 22 22 22
18 19 20 20 21 21 21 21 21 21 21 22 22 22 23 23 22 22 22 22 23 22 22 22 22 22 22 22 22 22 22 22 22 22 22 22 23 23 23 23 24 23 23
20 21 21 22 22 22 21 22 22 22 22 22 23 23 23 23 23 23 23 23 23 23 24 24 23 23 23 23 23 23 23 24 24 24 24 24 24 24 24 25 25 25 25
22 23 23 22 23 23 22 23 23 22 22 23 24 24 23 23 24 24 24 25 24 24 24 24 24 24 23 23 24 25 25 25 26 26 26 26 26 26 26 26 25 25 26
24 24 24 23 23 24 24 24 23 24 24 24 24 23 23 24 24 25 25 26 26 25 25 24 24 24 24 24 25 26 27 27 27 27 27 27 26 26 26 27 27 27 27
25 25 25 25 25 25 25 25 25 25 25 25 25 25 25 25 25 26 26 26 26 26 26 25 25 25 25 26 26 27 27 28 28 28 27 27 27 27 27 27 28 28 28
26 25 26 26 26 26 26 25 26 25 26 26 26 26 27 27 27 27 27 27 27 27 27 27 27 26 27 27 27 27 27 27 27 27 28 28 28 28 28 28 28 28 29
26 26 26 26 25 26 26 27 26 26 26 26 26 26 27 27 28 28 28 28 29 29 29 29 28 28 27 27 27 27 27 27 27 28 28 28 29 30 30 29 30 30 29
26 26 26 25 25 26 26 27 27 27 27 27 27 27 28 28 28 28 29 29 29 30 30 30 30 29 28 28 27 27 28 28 28 28 29 29 29 30 30 30 30 30 30
26 25 26 26 26 26 27 28 28 28 28 28 28 28 28 29 29 29 29 29 29 29 30 30 30 30 29 29 28 28 28 29 29 29 30 30 31 30 30 31 31 30 30
26 26 26 26 27 27 27 28 27 27 28 29 28 28 28 28 29 29 29 30 30 29 30 30 30 30 30 29 29 29 29 30 30 31 31 31 31 30 30 30 30 30 30
26 27 26 27 27 27 27 27 28 28 28 28 28 28 28 28 28 29 29 29 29 29 29 30 30 30 30 30 30 29 30 30 31 30 31 30 30 30 30 30 31 31 30
27 27 26 27 27 27 27 27 28 29 29 29 29 29 29 29 30 29 29 28 29 29 29 30 30 30 30 30 30 30 30 31 31 31 31 31 30 31 30 30 31 31 31
Wind_Direction
2 4 17 7 355 347 341 338 329 325 323 319 321 326 324 317 308 309 308 307 311 312 311 305 299 293 290 281 271 265 257 259 259 261 261 260 258 258 257 259 261 262 258
344 339 341 340 338 335 334 333 331 324 314 315 317 320 319 314 307 304 304 305 309 308 308 304 298 291 290 285 276 271 261 260 259 259 259 257 259 260 266 265 262 262 259
337 331 330 328 323 319 321 321 320 321 318 311 309 310 309 308 307 301 300 297 298 298 300 298 293 284 282 281 276 277 267 266 266 263 261 261 262 261 270 270 264 264 264
326 325 320 319 317 311 309 312 318 316 314 312 309 303 302 298 296 297 296 294 293 290 291 291 287 283 281 278 276 273 267 267 269 267 266 264 262 262 267 270 270 269 268
316 314 312 310 309 305 304 308 309 311 309 304 300 300 298 295 293 295 295 292 290 288 288 288 286 282 280 278 277 273 269 269 269 267 265 262 261 263 265 270 269 268 265
308 306 307 307 306 303 302 301 300 301 303 304 299 296 295 294 292 293 293 292 290 289 287 287 285 282 280 279 277 275 271 272 270 269 267 265 264 262 262 264 264 266 264
304 303 303 301 304 306 302 298 297 298 299 301 298 295 292 291 290 291 293 292 289 286 283 282 282 281 281 279 277 276 272 269 268 269 269 267 265 263 261 261 261 264 263
300 299 300 302 306 305 301 296 294 296 296 297 294 291 290 289 288 287 289 290 286 283 280 280 281 282 280 277 276 276 273 270 269 268 268 265 264 265 261 261 262 264 263
305 301 300 301 300 301 296 295 295 295 294 294 292 290 288 287 287 287 288 289 287 284 284 283 283 283 280 277 276 275 276 273 270 268 267 264 264 265 264 263 262 261 261
307 304 300 299 297 297 295 297 298 295 293 292 291 290 290 287 287 287 287 286 285 284 284 284 283 282 281 280 277 274 275 273 271 269 267 266 265 264 264 263 262 261 261
308 306 302 300 298 297 296 296 294 293 290 289 291 291 291 289 289 287 285 286 284 283 284 284 282 280 281 280 278 275 275 273 270 269 268 268 266 264 263 263 262 261 261
309 308 304 301 299 297 295 293 293 292 289 286 287 291 292 290 291 288 286 285 283 283 285 284 282 280 280 280 277 275 276 275 272 270 269 268 268 265 264 263 263 262 262
307 306 304 303 302 300 298 296 295 293 291 289 287 287 289 289 291 289 288 284 283 284 285 283 281 281 281 280 276 275 275 276 274 272 270 269 269 267 266 265 264 263 262
305 305 304 302 302 301 300 297 296 293 289 290 290 288 287 289 290 290 288 286 284 285 285 284 282 281 281 283 280 276 274 275 274 273 272 270 270 268 266 265 265 266 264
303 304 304 302 302 301 299 299 294 291 290 291 292 290 288 287 289 290 289 289 287 283 285 285 283 283 283 281 281 278 275 274 273 271 272 271 270 268 266 265 265 266 267
302 301 303 303 303 302 299 296 295 292 290 291 292 292 290 288 289 289 289 290 289 288 287 286 284 283 282 281 280 278 275 275 273 272 272 271 270 269 267 266 266 266 266
302 300 301 302 302 302 300 296 294 294 294 292 292 291 290 291 290 290 291 290 289 288 288 287 284 285 283 280 278 276 275 275 275 273 272 271 270 269 269 267 267 268 267
301 301 301 302 302 300 299 296 295 295 295 294 294 293 291 289 288 289 289 289 287 287 286 286 286 286 283 281 280 277 275 275 275 276 274 273 273 272 271 271 270 269 268
299 301 301 300 300 300 299 297 296 295 293 293 292 292 291 289 289 289 289 287 285 284 284 284 284 284 283 281 280 278 276 274 274 274 274 274 274 274 273 272 270 269 268
297 297 298 299 299 299 299 298 297 294 292 292 291 291 291 290 289 289 288 286 284 282 283 284 283 282 282 281 279 277 276 275 275 274 273 273 273 274 274 273 271 270 268
296 296 298 299 299 299 299 297 298 295 294 294 293 292 292 291 290 288 288 287 284 282 282 282 282 282 281 280 279 278 278 277 275 274 274 275 274 274 274 273 272 271 269
298 298 299 299 299 298 299 299 297 297 296 294 294 293 291 291 290 289 287 286 284 283 281 281 281 281 280 280 278 277 277 277 275 274 274 274 274 274 273 272 271 271 270
300 299 299 299 298 297 297 298 297 297 297 295 294 292 290 290 290 289 289 288 287 284 282 281 281 280 279 279 278 277 276 277 276 275 275 274 275 274 273 273 270 269 268
301 300 299 298 297 297 297 298 299 298 299 298 298 295 292 291 291 290 289 289 288 287 285 283 281 280 278 278 277 276 275 275 277 279 277 275 274 274 271 271 269 268 267
300 300 299 298 298 298 298 297 298 298 299 299 298 297 295 292 291 290 289 289 289 288 287 285 282 280 279 278 277 276 276 276 276 278 278 276 274 274 271 269 268 267 267
300 301 300 298 298 298 298 298 298 299 298 296 296 296 296 295 293 292 290 289 288 287 287 287 285 282 280 278 277 277 277 277 277 277 278 277 275 273 271 269 269 268 266
Height
5888 5887 5887 5887 5886 5886 5885 5884 5884 5883 5883 5882 5881 5880 5880 5879 5878 5878 5877 5877 5877 5876 5876 5875 5875 5875 5874 5873 5873 5873 5873 5873 5874 5874 5874 5874 5875 5875 5875 5875 5876 5876 5876
5888 5887 5887 5886 5886 5885 5884 5884 5883 5882 5882 5881 5880 5879 5879 5878 5877 5877 5876 5876 5875 5875 5874 5873 5873 5873 5872 5872 5871 5871 5871 5871 5871 5871 5872 5872 5872 5872 5872 5873 5873 5873 5874
5887 5887 5886 5886 5885 5884 5884 5883 5882 5881 5880 5880 5879 5878 5877 5877 5876 5875 5875 5874 5873 5873 5872 5871 5871 5870 5870 5869 5869 5869 5869 5869 5869 5869 5869 5869 5869 5870 5870 5870 5871 5871 5871
5886 5886 5885 5885 5884 5883 5882 5881 5881 5880 5879 5878 5877 5877 5876 5875 5874 5873 5873 5872 5871 5871 5870 5869 5868 5868 5867 5867 5867 5866 5866 5866 5866 5866 5866 5866 5867 5867 5867 5867 5868 5868 5868
5885 5884 5884 5883 5882 5881 5881 5880 5879 5878 5877 5876 5875 5875 5874 5873 5872 5871 5870 5869 5869 5868 5867 5866 5866 5865 5865 5864 5864 5864 5863 5863 5863 5863 5863 5864 5864 5864 5865 5864 5865 5865 5865
5884 5883 5882 5882 5880 5879 5879 5878 5877 5876 5875 5874 5873 5872 5871 5871 5870 5869 5868 5867 5866 5865 5864 5864 5863 5862 5862 5861 5861 5860 5860 5860 5860 5860 5860 5860 5860 5861 5861 5861 5862 5861 5861
5883 5882 5881 5880 5879 5877 5876 5875 5874 5873 5872 5871 5870 5870 5869 5868 5867 5866 5865 5864 5863 5862 5861 5860 5859 5859 5858 5858 5857 5857 5856 5856 5856 5856 5856 5856 5856 5857 5857 5857 5858 5858 5858
5881 5880 5879 5878 5876 5875 5874 5873 5871 5871 5870 5869 5868 5867 5866 5866 5864 5863 5862 5861 5860 5858 5857 5857 5856 5855 5854 5854 5854 5853 5853 5852 5852 5852 5852 5852 5852 5853 5853 5854 5854 5854 5854
5879 5878 5876 5875 5874 5872 5871 5870 5869 5868 5866 5865 5864 5863 5862 5862 5861 5860 5858 5857 5856 5855 5854 5853 5852 5851 5850 5850 5849 5849 5848 5848 5848 5848 5848 5848 5848 5848 5849 5849 5850 5850 5850
5876 5875 5874 5872 5871 5869 5868 5867 5865 5864 5863 5862 5860 5859 5859 5857 5857 5855 5854 5853 5852 5851 5850 5849 5848 5847 5846 5845 5845 5844 5844 5843 5843 5843 5843 5843 5843 5844 5844 5844 5845 5845 5846
5873 5872 5870 5869 5868 5866 5865 5863 5862 5861 5859 5858 5857 5855 5854 5853 5852 5851 5850 5849 5848 5847 5845 5845 5844 5842 5841 5841 5840 5840 5839 5839 5838 5838 5838 5838 5838 5839 5839 5839 5840 5840 5841
5870 5868 5867 5866 5864 5862 5861 5859 5858 5856 5854 5854 5852 5851 5850 5848 5847 5846 5844 5844 5843 5842 5841 5840 5839 5838 5837 5836 5835 5835 5834 5834 5833 5833 5833 5833 5833 5833 5834 5834 5834 5835 5835
5868 5866 5864 5862 5860 5858 5856 5855 5853 5852 5851 5849 5848 5847 5845 5844 5842 5841 5840 5839 5838 5837 5836 5835 5833 5832 5831 5830 5830 5829 5829 5828 5828 5828 5827 5827 5827 5828 5828 5828 5829 5829 5830
5864 5862 5860 5858 5856 5854 5852 5850 5849 5847 5846 5845 5843 5842 5840 5839 5837 5836 5835 5834 5833 5832 5830 5829 5828 5827 5826 5825 5824 5823 5823 5823 5822 5822 5822 5822 5821 5822 5822 5822 5823 5823 5824
5860 5858 5856 5854 5852 5849 5847 5845 5844 5842 5841 5839 5838 5836 5835 5834 5832 5831 5830 5828 5828 5827 5825 5824 5822 5821 5820 5819 5818 5818 5817 5817 5817 5816 5816 5816 5815 5815 5815 5816 5816 5817 5817
5856 5854 5851 5849 5847 5845 5842 5840 5838 5837 5835 5834 5832 5831 5829 5828 5826 5825 5824 5822 5821 5820 5819 5818 5816 5815 5814 5813 5812 5812 5811 5811 5811 5810 5810 5809 5809 5809 5809 5809 5809 5810 5810
5851 5849 5846 5844 5842 5839 5837 5835 5833 5831 5830 5828 5826 5825 5823 5822 5820 5819 5818 5816 5815 5814 5813 5811 5810 5808 5807 5806 5806 5805 5804 5804 5804 5803 5803 5802 5802 5802 5802 5802 5802 5802 5803
5845 5843 5841 5838 5836 5834 5831 5829 5827 5826 5824 5822 5820 5818 5817 5815 5814 5812 5811 5809 5808 5807 5806 5805 5803 5802 5801 5799 5799 5798 5797 5796 5796 5795 5795 5794 5794 5794 5794 5794 5794 5795 5795
5839 5837 5834 5832 5830 5828 5825 5823 5821 5819 5817 5815 5813 5811 5810 5808 5806 5805 5803 5802 5800 5799 5798 5797 5796 5795 5793 5792 5791 5790 5789 5788 5788 5787 5786 5786 5786 5786 5786 5786 5786 5786 5786
5833 5830 5828 5825 5823 5821 5819 5817 5815 5812 5810 5808 5806 5804 5803 5801 5799 5797 5796 5794 5793 5791 5790 5789 5788 5787 5786 5784 5783 5782 5781 5780 5780 5779 5778 5778 5778 5778 5778 5777 5777 5777 5778
5826 5824 5821 5819 5817 5814 5812 5810 5808 5805 5803 5801 5799 5797 5795 5793 5791 5790 5788 5786 5785 5783 5782 5781 5780 5779 5778 5776 5775 5774 5774 5773 5772 5771 5771 5770 5770 5770 5769 5769 5768 5768 5769
5819 5817 5815 5812 5810 5808 5805 5803 5801 5798 5796 5793 5791 5789 5787 5785 5784 5782 5780 5778 5777 5775 5774 5772 5772 5770 5769 5768 5767 5766 5766 5765 5764 5764 5763 5762 5761 5761 5760 5760 5760 5759 5759
5812 5810 5808 5805 5803 5801 5799 5796 5793 5790 5788 5786 5783 5781 5779 5777 5775 5774 5772 5770 5768 5766 5765 5764 5763 5762 5761 5760 5759 5758 5757 5756 5756 5755 5754 5753 5752 5751 5751 5750 5750 5750 5750
5806 5804 5801 5799 5796 5794 5791 5788 5786 5783 5781 5778 5775 5773 5771 5769 5767 5765 5763 5762 5760 5758 5756 5755 5754 5753 5751 5751 5750 5749 5748 5748 5747 5745 5744 5744 5743 5742 5741 5741 5741 5741 5741
5799 5797 5794 5792 5789 5786 5784 5781 5778 5776 5773 5770 5767 5765 5763 5761 5759 5757 5755 5753 5751 5749 5747 5746 5744 5743 5742 5741 5740 5740 5739 5738 5738 5737 5735 5734 5734 5733 5732 5732 5731 5731 5731
5792 5789 5787 5784 5781 5779 5776 5773 5770 5768 5765 5762 5760 5757 5755 5753 5751 5748 5746 5745 5743 5741 5739 5737 5735 5734 5732 5731 5730 5730 5729 5728 5727 5727 5725 5724 5724 5723 5723 5723 5722 5721 5721